Latest Coastal Weather Observations for Northern Endeavour (near 10.5S 126E)

IDD60701

Issued at 2:31 pm CST Thursday 29 September 2016 (issued every 10 minutes, with the page automatically refreshed every 10 minutes)

About coastal observations | Map of coastal stations | Coastal observations for NT | Marine services | Other Formats
Station Details ID: 200212 Name: NORTHERN ENDEAVOUR Lat: -10.61 Lon: 125.98 Height: 16.0 m
Data from the previous 72 hours. | See also: Recent months for locations in Northern Territory
Date/Time
CST
Temp
°C
Wind Pressure Rain since
9am
mm
Weather Cloud Vis
km
Sea
Height
m
Swell
Dir  Spd
kts
Gust
kts
hPa Trend Height
m
Period
s
Dir
27/04:30pm 31.1 SSE 4 5 1009.0 - - - - 10 - - - -
27/04:20pm 30.8 SSE 5 6 1009.0 - - - Partly cloudy 10 - - - -
27/04:10pm 30.9 SSE 5 5 1009.0 - - - Partly cloudy 10 - - - -
27/04:00pm 32.4 SSE 5 6 1009.0 - - - Partly cloudy 10 - - - -
27/03:50pm 33.0 SSE 5 5 1009.1 - - - - 10 - - - -
27/03:40pm 33.3 SSE 7 9 1009.1 - - - - 10 - - - -
27/03:30pm 33.2 SSE 6 9 1009.2 - - - - 10 - - - -
27/03:20pm 33.9 SSE 6 9 1009.2 - - - - 10 - - - -
27/03:10pm 33.5 SSE 6 7 1009.3 - - - - 10 - - - -
27/03:00pm 33.4 SSE 6 7 1009.4 - - - - 10 - - - -
27/02:50pm 33.5 S 6 7 1009.5 - - - - 10 - - - -
27/02:40pm 32.0 S 5 7 1009.6 - - - - 10 - - - -
27/02:30pm 33.0 SSE 5 9 1009.7 - - - - 10 - - - -
27/02:20pm 31.8 SSE 4 4 1009.9 - - - - 10 - - - -
27/02:10pm 33.2 SSE 4 8 1010.1 - - - - 10 - - - -
27/02:00pm 33.2 SE 5 5 1010.2 - - - - 10 - - - -
27/01:50pm 31.8 S 4 5 1010.2 - - - - 10 - - - -
27/01:40pm 32.3 SSE 4 6 1010.4 - - - - 10 - - - -
27/01:30pm 32.4 SSE 4 5 1010.5 - - - Partly cloudy 10 - - - -
27/01:20pm 33.1 SE 4 4 1010.7 - - - Partly cloudy 10 - - - -
27/01:10pm 32.2 SE 4 4 1010.9 - - - Partly cloudy 10 - - - -
27/01:00pm 30.6 S 3 4 1011.0 - - - - 10 - - - -
27/12:50pm 30.4 S 4 3 1011.1 - - - - 10 - - - -
27/12:40pm 29.8 S 4 6 1011.2 - - - - 10 - - - -
27/12:30pm 28.8 S 4 5 1011.3 - - - - 10 - - - -
27/12:20pm 29.1 S 4 3 1011.5 - - - - 10 - - - -
27/12:10pm 29.4 S 5 4 1011.6 - - - - 10 - - - -
27/12:00pm 30.2 S 5 6 1011.8 - - - - 10 - - - -
27/11:50am 30.8 S 5 6 1011.9 - - - - 10 - - - -
27/11:40am 31.0 S 5 6 1011.9 - - - - 10 - - - -
27/11:30am 31.5 S 4 7 1012.0 - - - - 10 - - - -
27/11:20am 32.4 S 5 6 1012.2 - - - - 10 - - - -
27/11:10am 31.2 S 5 6 1012.3 - - - - 10 - - - -
27/11:00am 31.7 S 5 6 1012.4 - - - - 10 - - - -
27/10:50am 32.3 S 5 6 1012.4 - - - - 10 - - - -
27/10:40am 32.0 S 4 6 1012.5 - - - - 10 - - - -
27/10:30am 31.8 S 4 5 1012.5 - - - - 10 - - - -
27/10:20am 32.1 SSE 5 5 1012.4 - - - - 10 - - - -
27/10:10am 31.2 S 4 5 1012.5 - - - - 10 - - - -
27/10:00am 30.7 SW 5 5 1012.5 - - - - 10 - - - -
27/09:50am 30.3 SW 5 6 1012.5 - - - Partly cloudy 10 - - - -
27/09:40am 30.5 SSW 5 5 1012.4 - - - Partly cloudy 10 - - - -
27/09:30am 29.2 SSW 5 7 1012.4 - - - Partly cloudy 10 - - - -
27/09:20am 28.9 SSW 5 6 1012.3 - - - - 10 - - - -
27/09:10am 28.5 SSW 5 7 1012.3 - - - - 10 - - - -
27/09:00am 28.4 SSW 4 6 1012.2 - - - - 10 - - - -
27/08:50am 28.4 SW 4 4 1012.3 - - - Partly cloudy 10 - - - -
27/08:40am 28.3 SW 4 4 1012.2 - - - Partly cloudy 10 - - - -
27/08:30am 28.3 SW 3 4 1012.2 - - - Cloudy 10 - - - -
27/08:20am 28.3 SW 2 3 1012.2 - - - Partly cloudy 10 - - - -
27/08:10am 28.4 SSW 2 2 1012.0 - - - Partly cloudy 10 - - - -
27/08:00am 28.4 SSW 3 4 1012.0 - - - Partly cloudy 10 - - - -
27/07:50am 28.4 SSW 2 2 1011.9 - - - Partly cloudy 10 - - - -
27/07:40am 28.3 SSW 3 3 1011.8 - - - Partly cloudy 10 - - - -
27/07:30am 28.2 SW 3 4 1011.8 - - - - 10 - - - -
27/07:20am 28.1 SW 3 4 1011.7 - - - - 10 - - - -
27/07:10am 28.1 SSW 4 4 1011.6 - - - - 10 - - - -
27/07:00am 28.1 SSW 4 4 1011.5 - - - Partly cloudy 10 - - - -
27/06:50am 28.2 SW 5 5 1011.4 - - - Partly cloudy 10 - - - -
27/06:40am 28.2 WSW 5 6 1011.4 - - - Partly cloudy 10 - - - -
27/06:30am 28.1 W 4 4 1011.2 - - - - 10 - - - -
27/06:20am 28.1 WSW 4 5 1011.1 - - - - 10 - - - -
27/06:10am 28.1 WSW 4 4 1011.0 - - - - 10 - - - -
27/06:00am 28.1 WSW 4 5 1011.0 - - - - 10 - - - -
27/05:50am 28.1 WSW 4 5 1010.8 - - - - 10 - - - -
27/05:40am 28.1 WSW 3 5 1010.7 - - - - 10 - - - -
27/05:30am 28.2 W 3 4 1010.6 - - - - 10 - - - -
27/05:20am 28.2 W 3 2 1010.6 - - - - 10 - - - -
27/05:10am 28.2 WNW 3 4 1010.6 - - - - 10 - - - -
27/05:00am 28.2 W 3 3 1010.6 - - - - 10 - - - -
27/04:50am 28.1 W 4 4 1010.5 - - - - 10 - - - -
27/04:40am 28.2 W 3 4 1010.5 - - - - 10 - - - -
27/04:30am 28.2 W 4 3 1010.3 - - - - 10 - - - -
27/04:20am 28.2 WSW 3 4 1010.3 - - - - 10 - - - -
27/04:10am 28.2 SW 3 4 1010.3 - - - - 10 - - - -
27/04:00am 28.2 SSW 4 5 1010.3 - - - - 10 - - - -
27/03:50am 28.2 SSW 3 4 1010.4 - - - - 10 - - - -
27/03:40am 28.2 SW 3 4 1010.4 - - - - 10 - - - -
27/03:30am 28.2 SW 2 3 1010.3 - - - - 10 - - - -
27/03:20am 28.3 SW 3 3 1010.3 - - - Partly cloudy 10 - - - -
27/03:10am 28.3 SW 3 3 1010.3 - - - - 10 - - - -
27/03:00am 28.2 WSW 2 2 1010.3 - - - - 10 - - - -
27/02:50am 28.3 SW 2 3 1010.3 - - - - 10 - - - -
27/02:40am 28.3 WSW 2 3 1010.4 - - - - 10 - - - -
27/02:30am 28.3 W 2 1 1010.5 - - - Partly cloudy 10 - - - -
27/02:20am 28.4 W 2 2 1010.6 - - - Partly cloudy 10 - - - -
27/02:10am 28.4 W 3 3 1010.6 - - - Partly cloudy 10 - - - -
27/02:00am 28.3 WSW 2 3 1010.8 - - - Partly cloudy 10 - - - -
27/01:50am 28.4 SW 2 2 1010.8 - - - Partly cloudy 10 - - - -
27/01:40am 28.4 SSW 3 2 1010.9 - - - - 10 - - - -
27/01:30am 28.4 S 3 3 1010.9 - - - - 10 - - - -
27/01:20am 28.4 S 4 4 1011.0 - - - - 10 - - - -
27/01:10am 28.5 SSW 4 4 1011.0 - - - - 10 - - - -
27/01:00am 28.4 S 4 5 1011.1 - - - - 10 - - - -
27/12:50am 28.4 S 4 4 1011.3 - - - - 10 - - - -
27/12:40am 28.5 S 5 5 1011.4 - - - - 10 - - - -
27/12:30am 28.5 S 5 5 1011.6 - - - - 10 - - - -
27/12:20am 28.6 S 5 4 1011.7 - - - - 10 - - - -
27/12:10am 28.8 S 4 6 1011.9 - - - - 10 - - - -
27/12:00am 28.8 SSE 4 6 1011.9 - - - - 10 - - - -
 
Date/Time
CST
Temp
°C
Wind Pressure Rain since
9am
mm
Weather Cloud Vis
km
Sea
Height
m
Swell
Dir  Spd
kts
Gust
kts
hPa Trend Height
m
Period
s
Dir
26/11:50pm 28.8 SE 5 6 1012.0 - - - - 10 - - - -
26/11:40pm 28.9 SSE 5 6 1012.0 - - - - 10 - - - -
26/11:30pm 28.9 SE 7 7 1012.0 - - - Partly cloudy 10 - - - -
26/11:20pm 28.9 SE 7 11 1011.9 - - - Partly cloudy 10 - - - -
26/11:10pm 28.9 SSE 8 9 1011.9 - - - Partly cloudy 10 - - - -
26/11:00pm 28.9 SSE 8 8 1011.9 - - - Partly cloudy 10 - - - -
26/10:50pm 28.9 S 7 11 1011.8 - - - Partly cloudy 10 - - - -
26/10:40pm 28.9 S 6 11 1011.8 - - - - 10 - - - -
26/10:30pm 29.0 SSE 6 7 1011.7 - - - - 10 - - - -
26/10:20pm 28.9 S 5 6 1011.7 - - - - 10 - - - -
26/10:10pm 29.0 SSE 5 8 1011.7 - - - - 10 - - - -
26/10:00pm 28.9 S 6 9 1011.6 - - - - 10 - - - -
26/09:50pm 29.0 SE 6 7 1011.5 - - - - 10 - - - -
26/09:40pm 29.1 SSE 6 8 1011.4 - - - Partly cloudy 10 - - - -
26/09:30pm 29.0 S 7 10 1011.2 - - - - 10 - - - -
26/09:20pm 29.1 S 7 13 1011.1 - - - - 10 - - - -
26/09:10pm 29.0 S 6 8 1011.0 - - - - 10 - - - -
26/09:00pm 29.0 S 8 6 1010.8 - - - - 10 - - - -
26/08:50pm 29.2 S 9 12 1010.6 - - - - 10 - - - -
26/08:40pm 29.2 S 7 10 1010.6 - - - - 10 - - - -
26/08:30pm 29.2 S 10 11 1010.6 - - - - 10 - - - -
26/08:20pm 29.2 SSW 8 14 1010.4 - - - - 10 - - - -
26/08:10pm 29.3 S 7 12 1010.3 - - - - 10 - - - -
26/08:00pm 29.2 SSW 7 9 1010.4 - - - - 10 - - - -
26/07:50pm 29.2 SSW 8 10 1010.3 - - - - 10 - - - -
26/07:40pm 29.3 SSW 8 11 1010.2 - - - - 10 - - - -
26/07:30pm 29.4 S 7 11 1010.1 - - - - 10 - - - -
26/07:20pm 29.6 S 7 10 1010.0 - - - - 10 - - - -
26/07:10pm 29.5 S 8 10 1009.9 - - - - 10 - - - -
26/07:00pm 29.6 S 8 9 1009.7 - - - Partly cloudy 10 - - - -
26/06:50pm 29.9 S 8 12 1009.6 - - - Partly cloudy 10 - - - -
26/06:40pm 29.7 SSW 9 12 1009.4 - - - Partly cloudy 10 - - - -
26/06:30pm 30.1 S 7 10 1009.2 - - - Partly cloudy 10 - - - -
26/06:20pm 30.0 SSW 8 10 1009.2 - - - - 10 - - - -
26/06:10pm 30.4 S 9 13 1009.0 - - - - 10 - - - -
26/06:00pm 30.5 SSW 9 8 1008.9 - - - - 10 - - - -
26/05:50pm 30.3 SSW 8 10 1008.8 - - - - 10 - - - -
26/05:40pm 30.7 SSW 8 11 1008.6 - - - - 10 - - - -
26/05:30pm 30.5 S 8 9 1008.6 - - - - 10 - - - -
26/05:20pm 30.2 SSW 8 9 1008.6 - - - - 10 - - - -
26/05:10pm 30.4 SSW 8 11 1008.5 - - - - 10 - - - -
26/05:00pm 30.8 SSW 7 8 1008.6 - - - - 10 - - - -
26/04:50pm 30.6 SSW 8 7 1008.6 - - - - 10 - - - -
26/04:40pm 30.4 SSW 7 7 1008.7 - - - - 10 - - - -
26/04:30pm 30.7 SSW 7 7 1008.7 - - - - 10 - - - -
26/04:20pm 30.8 SSW 7 9 1008.7 - - - - 10 - - - -
26/04:10pm 30.3 SW 7 9 1008.8 - - - - 10 - - - -
26/04:00pm 30.6 SW 7 7 1008.9 - - - - 10 - - - -
26/03:50pm 29.1 SW 7 8 1008.8 - - - - 10 - - - -
26/03:40pm 29.1 SW 6 6 1008.8 - - - - 10 - - - -
26/03:30pm 29.9 SW 6 6 1008.9 - - - - 10 - - - -
26/03:20pm 29.3 SW 6 6 1008.9 - - - - 10 - - - -
26/03:10pm 29.0 SSW 5 7 1008.9 - - - - 10 - - - -
26/03:00pm 29.7 SSW 4 6 1008.9 - - - - 10 - - - -
26/02:50pm 28.9 SW 4 6 1009.0 - - - - 10 - - - -
26/02:40pm 28.8 WSW 3 5 1009.1 - - - - 10 - - - -

Other Formats:

Comma delimited format used in spreadsheet applications
http://www.bom.gov.au/fwo/IDD60701/IDD60701.95100.axf

JavaScript Object Notation format (JSON) in row-major order
http://www.bom.gov.au/fwo/IDD60701/IDD60701.95100.json